Regional Weather Roundup
Issued by NWS Boston, MA

Home | Current Version | Previous Version | Text Only | Print | Product List | Glossary On
Versions: 1 2 3 4 5 6 7 8 9 10 11 12 13 14 15 16 17 18 19 20 21 22 23 24 25 26 27 28 29 30 31 32 33 34 35 36 37 38 39 40 41 42 43 44 45 46 47 48 49 50
000
ASUS41 KBOX 301210
RWRBOX

REGIONAL WEATHER ROUNDUP
NATIONAL WEATHER SERVICE TAUNTON MA
700 AM EST FRI JAN 30 2015

NOTE:  "FAIR" INDICATES FEW OR NO CLOUDS BELOW 12,000 FEET WITH NO
SIGNIFICANT WEATHER AND/OR OBSTRUCTIONS TO VISIBILITY.  THE FOLLOWING
OBSERVATION LOCATIONS DO NOT REPORT PRESENT WEATHER...PROVINCETOWN...
SMITHFIELD...BLOCK ISLAND...KEENE...AND OXFORD.

MAZALL-301300-
EASTERN MASSACHUSETTS

CITY           SKY/WX    TMP DP  RH WIND       PRES   REMARKS
BOSTON         CLOUDY    32  28  85 S8        29.85F WCI  25
6HR MIN TEMP:  28; 6HR MAX TEMP:  32; 6HR PCP:  0.01;

BEVERLY        CLOUDY    34  30  85 S7        29.84F WCI  28
LAWRENCE       MIX PCPN  30  28  92 CALM      29.86F
BEDFORD        CLOUDY    29  27  92 CALM      29.84F
BLUE HILL        N/A     29  28  96 SE12      29.81F WCI  19
NORWOOD        CLOUDY    31  28  89 CALM      29.85F
MARSHFIELD     CLOUDY    34  32  93 S7        29.87F WCI  28
PLYMOUTH       CLOUDY    33  31  92 CALM      29.85F
TAUNTON        LGT RAIN  33  31  92 SE3       29.84F
NEW BEDFORD    LGT RAIN  34  33  96 SE5       29.84F WCI  30
$$

MAZALL-301300-
CAPE COD AND THE ISLANDS

CITY           SKY/WX    TMP DP  RH WIND       PRES   REMARKS
FALMOUTH       CLOUDY    36  32  87 SE9       29.85F WCI  29
HYANNIS        CLOUDY    37  33  85 SE7       29.84F WCI  32
CHATHAM        CLOUDY    37  32  82 SE10      29.87F WCI  30
PROVINCETOWN   CLOUDY    36  30  80 SE12      29.86F WCI  27
NANTUCKET      CLOUDY    38  33  82 SE16      29.85F WCI  29
MARTHAS VNYRD  LGT RAIN  36  33  89 S8        29.85F WCI  30
$$

MAZALL-301300-
CENTRAL AND WESTERN MASSACHUSETTS

CITY           SKY/WX    TMP DP  RH WIND       PRES   REMARKS
WORCESTER      CLOUDY    27  27 100 S3        29.79F FOG
6HR MIN TEMP:  24; 6HR MAX TEMP:  27; 6HR PCP:  0.02;

FITCHBURG      CLOUDY    27  23  85 CALM      29.84F
ORANGE         CLOUDY    27  25  92 CALM      29.81F
SPRINGFIELD    FLURRIES  27  25  93 CALM      29.81F
WESTFIELD      CLOUDY    28  25  88 CALM      29.82F FOG
NORTH ADAMS    CLOUDY    27  25  92 CALM      29.80S
PITTSFIELD     LGT SNOW  26  24  92 W6        29.76S FOG     WCI  19
$$

RIZALL-301300-
RHODE ISLAND

CITY           SKY/WX    TMP DP  RH WIND       PRES   REMARKS
PROVIDENCE     CLOUDY    32  30  92 NE5       29.84F WCI  27
6HR MIN TEMP:  29; 6HR MAX TEMP:  32; 6HR PCP:  0.01;

NEWPORT        LGT RAIN  36  33  89 CALM      29.84F
BLOCK ISLAND   CLOUDY    36  30  80 SW5       29.83F WCI  32
SMITHFIELD     CLOUDY    30  25  80 CALM      29.82F
WESTERLY       LGT SNOW  34  32  92 CALM      29.85S FOG
$$

CTZALL-301300-
CONNECTICUT

CITY           SKY/WX    TMP DP  RH WIND       PRES   REMARKS
BRADLEY INTL   FLURRIES  30  28  92 S5        29.82F WCI  25
6HR MIN TEMP:  28; 6HR MAX TEMP:  31; 6HR PCP:  0.01;

HARTFORD       CLOUDY    32  28  85 CALM      29.84F
BRIDGEPORT     LGT SNOW  32  32 100 CALM      29.83F FOG
DANBURY        LGT SNOW  30  26  85 W3        29.83S FOG
GROTON         MIX PCPN  33  32  96 CALM      29.84F
NEW HAVEN      LGT SNOW  32  30  92 CALM      29.83F FOG
CHESTER        MOCLDY    32  32 100 W3        29.82F
MERIDEN        MIX PCPN  30  29  96 CALM      29.83F FOG
WILLIMANTIC    CLOUDY    29  27  92 CALM      29.84F FOG
OXFORD         LGT SNOW  30  23  74 CALM      29.81F FOG
$$

MEZ002-015-021-024-NHZ003-005-008-011-012-014-VTZ005-008-301300-
NORTHERN NEW ENGLAND

CITY           SKY/WX    TMP DP  RH WIND       PRES   REMARKS
PORTLAND ME    LGT SNOW  30  28  92 CALM      29.86F VSB 3/4
6HR MIN TEMP:  22; 6HR MAX TEMP:  30; 6HR PCP:  0.06;

BANGOR ME      LGT SNOW  19  14  81 N3        29.90F
CONCORD NH     CLOUDY    27  24  89 CALM      29.84F
MANCHESTER NH  CLOUDY    26  24  92 CALM      29.83F FOG
NASHUA NH      CLOUDY    26  25  96 CALM      29.86F
PORTSMOUTH NH  LGT SNOW  29  28  93 NW5       29.84F VSB 1   WCI  24
JAFFREY NH     CLOUDY    27  24  89 CALM      29.79F
KEENE NH       CLOUDY    27  25  93 CALM      29.81F
BURLINGTON VT  LGT SNOW  28  24  85 S7        29.80S FOG     WCI  21
MT. WASHINGTON SNOW       9   9 100 SW32        N/A  VSB 1/16WCI -15
$$

NYZ052-076-301300-
EASTERN NEW YORK

CITY           SKY/WX    TMP DP  RH WIND       PRES   REMARKS
ALBANY         LGT SNOW  28  24  85 S8        29.84S FOG     WCI  20
6HR MIN TEMP:  28; 6HR MAX TEMP:  28; 6HR PCP:  0.04;

NEW YORK CITY  FLURRIES  33  25  72 NW12      29.84S WCI  24
6HR MIN TEMP:  32; 6HR MAX TEMP:  35; 6HR PCP:  0.03;

$$

ANZALL-301300-
MARINE OBSERVATIONS

STATION/POSITION TIME  TEMP    WIND        PRES    VSBY  WAVE
                       AIR SEA DIR/SP/G                  HT/PER
                 (UTC) (F)     (DEG/KT/KT) (MB)    (MI)  (FT/S)
BOSTON BUOY      1150   36 40  160/ 17/ 21 1010.6F         3/ 4
BUZZARDS BAY     1200          240/  5/  6 1011.3F
NANTUCKET SOUND  NOT AVBL
MASS BAY-STELLWA 1104   36 40  150/ 17/ 21   N/A    1 7/8  3/ 4
ISLE OF SHOALS   1200   35     180/ 19/ 20 1010.0F
S OF BLOCK IS    1108      42                N/A           3/ 9
$$

......................KEY.........................
  SKY/WX - SKY CONDITION/PRESENT WEATHER
  TMP    - TEMPERATURE IN FAHRENHEIT
  DWPT   - DEWPOINT IN FAHRENHEIT
  RH     - RELATIVE HUMIDITY IN PERCENT
  WIND   - DIRECTION AND SPEED IN MPH
  PRES   - MEAN SEA LEVEL PRESSURE IN INCHES OF HG
  WCI    - WIND CHILL INDEX
  VSB    - VISIBILITY IN MILES
  HX     - HEAT INDEX
  TC     - TEMPERATURE IN CELSIUS
  VRB    - VARIABLE WIND DIRECTION
  N/A    - NOT AVAILABLE


USA.gov is the U.S. government's official web portal to all federal, state and local government web resources and services.